Regional Weather Roundup
Issued by NWS

Home | Current Version | Previous Version | Graphics & Text | Print | Product List | Glossary Off
Versions: 1 2 3 4 5 6 7 8 9 10 11 12 13 14 15 16 17 18 19 20 21 22 23 24 25 26 27 28 29 30 31 32 33 34 35 36 37 38 39 40 41 42 43 44 45 46 47 48 49 50

000
ASUS43 KFSD 291202
RWRSD

WEATHER ROUNDUP FOR SOUTH DAKOTA
NATIONAL WEATHER SERVICE SIOUX FALLS SD
700 AM CDT FRI AUG 29 2014

NOTE: "FAIR" INDICATES FEW OR NO CLOUDS BELOW 12,000 FEET WITH NO
SIGNIFICANT WEATHER AND/OR OBSTRUCTIONS TO VISIBILITY.


SDZ001>005-009-010-012>017-291300-
NORTHWEST AND NORTH CENTRAL SOUTH DAKOTA

CITY           SKY/WX    TMP DP  RH WIND       PRES   REMARKS
BUFFALO          N/A     63  55  75 N21       29.87R
FAITH            N/A     58  58 100 SW7       29.85R
MOBRIDGE       FOG       63  63 100 CALM      29.80S VSB 1/4
$$

SDZ012>016-024>037-041>051-057-063-072>074-291300-
SOUTHWEST AND SOUTH CENTRAL SOUTH DAKOTA

CITY           SKY/WX    TMP DP  RH WIND       PRES   REMARKS
RAPID CTY ARPT CLEAR     61  49  64 NW8       29.90R
PIERRE         CLOUDY    65  65 100 NW6       29.81S FOG
CUSTER         PTCLDY    55  45  68 NW5       30.05S
ELLSWORTH AFB  CLEAR     60  49  68 W7        29.89S
PHILIP         CLEAR     55  53  93 W6        29.85R
PINE RIDGE     CLEAR     48  47  96 CALM      29.92S
WINNER         PTSUNNY   65  63  93 W5        29.83S
$$

SDZ004>011-016>023-039-040-291300-
NORTHEAST SOUTH DAKOTA

CITY           SKY/WX    TMP DP  RH WIND       PRES   REMARKS
ABERDEEN       CLOUDY    64  64 100 CALM      29.79S FOG
WATERTOWN      FOG       65  65 100 CALM      29.78S VSB 3/4
SISSETON         N/A     65  65 100 N5        29.77S
$$

SDZ017-020-022-023-036>040-048>070-291300-
SOUTHEAST SOUTH DAKOTA

CITY           SKY/WX    TMP DP  RH WIND       PRES   REMARKS
SIOUX FALLS    CLOUDY    69  67  93 S5        29.77S
HURON          CLOUDY    67  67 100 N7        29.77S FOG
CHAMBERLAIN    CLOUDY    66  66  99 NW8       29.81S FOG
MITCHELL       CLOUDY    68  68 100 W5        29.78R FOG
YANKTON        CLOUDY    66  66 100 W3        29.79R
$$

ABBREVIATIONS USED IN REMARKS
   TC - TEMPERATURE IN CELSIUS
  WCI - WIND CHILL INDEX
   HX - HEAT INDEX
  VSB - VISIBILITY



USA.gov is the U.S. government's official web portal to all federal, state and local government web resources and services.